Hourly Data Report for May 13, 2004

SHERBROOKE A
QUEBEC

45°26'00.000" N
71°41'00.000" W
241.40 m
7028124
71610
YSC

Download Data

Hourly Data (May 2004)
Hourly Data Report for May 13, 2004
TIME
LST
Temp Definition
°C
Dew Point Definition
°C
Rel Hum Definition
%
Precip. Amount Definition
mm

Wind Dir Definition
10's deg

Wind Spd Definition
km/h
Visibility Definition
km
Stn Press Definition
kPa
Hmdx Definition


Wind Chill Definition


Weather Definition


00:00 11.5 5.3 66   5 11 15.0 99.26      
01:00 11.9 4.6 61   5 15 15.0 99.26      
02:00 11.5 4.5 62   6 13 15.0 99.27      
03:00 10.5 5.4 71   4 13 15.0 99.28      
04:00 10.1 5.7 74   5 9 15.0 99.31      
05:00 9.7 6.1 78   5 9 15.0 99.35      
06:00 9.3 5.6 78   4 11 15.0 99.42      
07:00 10.9 6.4 74   5 15 24.1 99.45     Mainly Clear
08:00 12.2 7.0 71   6 15 24.1 99.47     Mostly Cloudy
09:00 14.9 7.6 62   4 13 24.1 99.44     Mostly Cloudy
10:00 16.3 8.4 59   4 13 24.1 99.43     Mostly Cloudy
11:00 16.5 9.4 63   3 13 19.3 99.42     Cloudy
12:00 14.2 11.1 82   5 13 24.1 99.40     Cloudy
13:00 15.6 10.5 72   5 11 24.1 99.39     Cloudy
14:00 17.4 11.3 67   5 13 24.1 99.30     Mostly Cloudy
15:00 18.8 12.2 65   5 13 24.1 99.23     Mainly Clear
16:00 19.7 12.6 64   3 11 24.1 99.21     Mainly Clear
17:00 18.7 11.8 64   5 9 15.0 99.22      
18:00 18.2 11.7 66   5 9 15.0 99.25      
19:00 15.5 10.4 72   5 6 15.0 99.27      
20:00 13.6 9.3 75     0 15.0 99.33      
21:00 12.0 8.2 78   5 4 15.0 99.35      
22:00 10.7 7.9 83     0 15.0 99.33      
23:00 10.7 7.6 81   11 6 15.0 99.31      

Notes on Data Quality.

Legend

  • E = Estimated
  • M = Missing
  • NA = Not Available*
  • [empty] = Indicates an unobserved value
Date modified: